Regional Weather Roundup
Issued by NWS Charleston, WV

Home | Current Version | Previous Version | Graphics & Text | Print | Product List | Glossary On
Versions: 1 2 3 4 5 6 7 8 9 10 11 12 13 14 15 16 17 18 19 20 21 22 23 24 25 26 27 28 29 30 31 32 33 34 35 36 37 38 39 40 41 42 43 44 45 46 47 48 49 50
000
ASUS41 KRLX 181910
RWRRLX
West Virginia Regional Weather Roundup
National Weather Service Charleston WV
300 PM EDT THU SEP 18 2014

Note: "fair" indicates few or no clouds below 12,000 feet with no
significant weather and/or obstructions to visibility.

WVZ003-182000-
Northern Panhandle of West Virginia

CITY           SKY/WX    TMP DP  RH WIND       PRES   REMARKS
WHEELING       PTSUNNY   66  46  48 VRB5      30.09F
$$

WVZ009-182000-
Northwest West Virginia

CITY           SKY/WX    TMP DP  RH WIND       PRES   REMARKS
PARKERSBURG    SUNNY     73  44  35 NE12G17   30.09F
$$

WVZ006-182000-
Western West Virginia

CITY           SKY/WX    TMP DP  RH WIND       PRES   REMARKS
HUNTINGTON     PTSUNNY   69  52  54 N7        30.05F
$$

WVZ015-182000-
West Central West Virginia

CITY           SKY/WX    TMP DP  RH WIND       PRES   REMARKS
CHARLESTON     PTSUNNY   70  53  54 N6        30.05F
$$

WVZ031-182000-
North Central West Virginia

CITY           SKY/WX    TMP DP  RH WIND       PRES   REMARKS
CLARKSBURG     PTSUNNY   68  49  50 VRB7      30.07F
MORGANTOWN     MOSUNNY   70  47  43 NE7       30.09F
$$

WVZ035-042-045-182000-
South Central West Virginia

CITY           SKY/WX    TMP DP  RH WIND       PRES   REMARKS
BECKLEY        SUNNY     70  48  45 NW8       30.08F
BLUEFIELD      CLOUDY    71  47  42 NW5       30.09F
LEWISBURG      PTSUNNY   71  49  45 CALM      30.06F
$$

WVZ047-182000-
Northern Mountains of West Virginia

CITY           SKY/WX    TMP DP  RH WIND       PRES   REMARKS
ELKINS         PTSUNNY   69  50  50 VRB7      30.08S
$$

WVZ052-182000-
Eastern Panhandle of West Virginia

CITY           SKY/WX    TMP DP  RH WIND       PRES   REMARKS
MARTINSBURG    PTSUNNY   76  47  35 N7        30.03S
PETERSBURG     MOSUNNY   74  45  34 CALM      30.03F
$$


USA.gov is the U.S. government's official web portal to all federal, state and local government web resources and services.